Learmonth, Western Australia

2:42 PM AWST on February 07, 2016 (GMT +0800)
Learmonth

Weather History for YPLM - February, 2013

Change the Weather History Date:

Thursday, February 7, 2013

  Actual Average Record
Temperature  
Mean Temperature 95 °F -  
Max Temperature 112 °F 96 °F - ()
Min Temperature 78 °F 73 °F - ()
Cooling Degree Days 30    
Growing Degree Days 45 (Base 50)    
Moisture  
Dew Point 55 °F    
Average Humidity 32    
Maximum Humidity 74    
Minimum Humidity 4    
Precipitation  
Precipitation 0.00 in 0.03 in - ()
Sea Level Pressure  
Sea Level Pressure 29.69 in    
Wind  
Wind Speed 17 mph ()    
Max Wind Speed 24 mph    
Max Gust Speed 36 mph    
Visibility 6.6 miles    
Events      
T = Trace of Precipitation, MM = Missing Value Source: Averaged Metar Reports

Daily Weather History Graph

Daily Weather History Graph

Search for Another Location

Airport or City:

Trip Planner

Search our weather history database for the weather conditions in past years. The results will help you decide how hot, cold, wet, or windy it might be!

Date:

Astronomy

Feb. 07, 2013 Rise Set
Actual Time 6:08 AM AWST 7:07 PM AWST
Civil Twilight 5:44 AM AWST 7:30 PM AWST
Nautical Twilight 5:17 AM AWST 7:58 PM AWST
Astronomical Twilight 4:48 AM AWST 8:26 PM AWST
Moon 2:44 AM AWST 4:23 PM AWST
Length of Visible Light 13h 45m
Length of Day
12h 58m
Waning Crescent, 13% of the Moon is Illuminated
Feb 7
Waning Crescent
Feb 10
New
Feb 18
First Quarter
Feb 26
Full
Mar 5
Last Quarter

Hourly Weather History & Observations

Time (AWST) Temp. Heat Index Dew Point Humidity Pressure Visibility Wind Dir Wind Speed Gust Speed Precip Events Conditions
12:00 AM 86 °F - 63 °F 37% 29.73 in - South 19.6 mph - -  
12:00 AM 86.0 °F 86.6 °F 62.6 °F 45% 29.71 in 6.2 mi South 19.6 mph - N/A   Unknown
12:30 AM 86.0 °F 86.6 °F 62.6 °F 45% 29.71 in 6.2 mi South 18.4 mph - N/A   Unknown
1:00 AM 84.2 °F 85.0 °F 62.6 °F 48% 29.71 in 6.2 mi South 19.6 mph - N/A   Unknown
1:30 AM 84.2 °F 84.4 °F 60.8 °F 45% 29.71 in 6.2 mi South 18.4 mph - N/A   Unknown
2:00 AM 83 °F - 59 °F 34% 29.71 in - South 18.4 mph - -  
2:00 AM 84.2 °F 83.8 °F 59.0 °F 42% 29.71 in 6.2 mi South 18.4 mph - N/A   Unknown
2:30 AM 82.4 °F 82.5 °F 59.0 °F 45% 29.68 in 6.2 mi South 16.1 mph - N/A   Unknown
3:00 AM 83 °F - 57 °F 31% 29.71 in - South 16.1 mph - -  
3:00 AM 82.4 °F 82.0 °F 57.2 °F 42% 29.71 in 6.2 mi South 16.1 mph - N/A   Unknown
3:30 AM 82.4 °F 82.0 °F 57.2 °F 42% 29.71 in 6.2 mi South 15.0 mph - N/A   Unknown
4:00 AM 80.6 °F 80.8 °F 57.2 °F 45% 29.71 in 6.2 mi South 15.0 mph - N/A   Unknown
4:30 AM 80.6 °F 80.8 °F 57.2 °F 45% 29.71 in 6.2 mi SSW 13.8 mph - N/A   Unknown
5:00 AM 80 °F - 55 °F 31% 29.72 in - South 15.0 mph - -  
5:00 AM 80.6 °F 80.5 °F 55.4 °F 42% 29.71 in 6.2 mi South 15.0 mph - N/A   Unknown
5:30 AM 80.6 °F 80.5 °F 55.4 °F 42% 29.71 in 6.2 mi SSW 16.1 mph - N/A   Unknown
6:00 AM 79 °F - 55 °F 33% 29.72 in 11 mi South 13.8 mph - -   Haze
6:00 AM 78.8 °F - 55.4 °F 44% 29.71 in - South 13.8 mph - N/A   Clear
6:30 AM 78.8 °F - 55.4 °F 44% 29.71 in - SSW 15.0 mph - N/A   Clear
7:00 AM 80.6 °F 80.5 °F 55.4 °F 42% 29.71 in - South 17.3 mph - N/A   Clear
7:30 AM 84.2 °F 83.0 °F 55.4 °F 37% 29.71 in - South 18.4 mph - N/A   Clear
8:00 AM 86 °F - 54 °F 23% 29.73 in - South 19.6 mph - -  
8:00 AM 86.0 °F 84.2 °F 53.6 °F 33% 29.71 in 6.2 mi South 19.6 mph - N/A   Partly Cloudy
8:30 AM 89.6 °F - 51.8 °F 27% 29.71 in 6.2 mi South 23.0 mph - N/A   Partly Cloudy
9:00 AM 93 °F - 50 °F 14% 29.74 in 9 mi South 19.6 mph - -   Blowing Sand
9:00 AM 93.2 °F - 50.0 °F 23% 29.74 in 6.2 mi South 19.6 mph - N/A   Scattered Clouds
9:30 AM 96.8 °F - 48.2 °F 19% 29.74 in - SSE 20.7 mph - N/A   Clear
10:00 AM 96.8 °F - 46.4 °F 18% 29.74 in - SSE 19.6 mph - N/A   Clear
10:30 AM 98.6 °F - 44.6 °F 16% 29.71 in - SSE 20.7 mph - N/A   Clear
11:00 AM 102 °F - 45 °F 8% 29.73 in - SSE 18.4 mph - -  
11:00 AM 102.2 °F - 44.6 °F 14% 29.71 in - SSE 18.4 mph - N/A   Clear
11:30 AM 104.0 °F - 44.6 °F 13% 29.71 in - SSE 17.3 mph - N/A   Clear
12:00 PM 106 °F - 44 °F 6% 29.70 in 11 mi SSE 17.3 mph - -   Partly Cloudy
12:00 PM 105.8 °F - 44.6 °F 13% 29.68 in - SSE 17.3 mph - N/A   Clear
12:30 PM 107.6 °F - 42.8 °F 11% 29.68 in - SE 18.4 mph - N/A   Clear
1:04 PM 107.6 °F - 41.0 °F 10% 29.65 in - SSE 18.4 mph 29.9 mph N/A   Clear
1:30 PM 111.2 °F - 37.4 °F 8% 29.65 in - SE 18.4 mph - N/A   Clear
1:46 PM 109.4 °F - 37.4 °F 9% 29.65 in - SSE 17.3 mph 31.1 mph N/A   Clear
2:00 PM 111 °F - 35 °F 4% 29.65 in - SE 17.3 mph - -  
2:00 PM 111.2 °F - 35.6 °F 8% 29.65 in - SE 17.3 mph - N/A   Clear
2:30 PM 113.0 °F - 32.0 °F 6% 29.62 in 6.2 mi SE 15.0 mph - N/A   Partly Cloudy
3:00 PM 112 °F - 36 °F 4% 29.63 in 9 mi SSE 13.8 mph - -   Dust Whirls
3:00 PM 111.2 °F - 35.6 °F 8% 29.62 in 6.2 mi SSE 13.8 mph - N/A   Dust Whirls
3:30 PM 109.4 °F 107.9 °F 53.6 °F 16% 29.62 in 6.2 mi South 19.6 mph - N/A   Unknown
4:00 PM 107.6 °F 108.2 °F 59.0 °F 20% 29.62 in 6.2 mi SSW 20.7 mph - N/A   Unknown
4:30 PM 105.8 °F 106.8 °F 59.0 °F 22% 29.62 in 6.2 mi SSW 20.7 mph - N/A   Unknown
5:00 PM 103 °F - 58 °F 14% 29.62 in - SSW 21.9 mph - -  
5:00 PM 104.0 °F 103.4 °F 57.2 °F 21% 29.62 in 6.2 mi SSW 21.9 mph - N/A   Unknown
5:30 PM 100.4 °F 101.3 °F 60.8 °F 27% 29.59 in 6.2 mi SSW 24.2 mph - N/A   Unknown
6:00 PM 97 °F - 64 °F 25% 29.62 in - SSW 21.9 mph - -  
6:00 PM 96.8 °F 99.0 °F 64.4 °F 34% 29.62 in 6.2 mi SSW 21.9 mph 33.4 mph N/A   Unknown
6:35 PM 93.2 °F 96.2 °F 66.2 °F 41% 29.62 in 6.2 mi SSW 23.0 mph 35.7 mph N/A   Unknown
7:04 PM 91.4 °F 90.7 °F 59.0 °F 34% 29.65 in 6.2 mi SSW 23.0 mph 35.7 mph N/A   Unknown
7:30 PM 89.6 °F 88.1 °F 57.2 °F 33% 29.65 in 6.2 mi SSW 20.7 mph - N/A   Unknown
8:00 PM 88 °F - 62 °F 32% 29.68 in - SSW 19.6 mph - -  
8:00 PM 87.8 °F 88.5 °F 62.6 °F 43% 29.68 in 6.2 mi SSW 19.6 mph - N/A   Unknown
8:30 PM 86.0 °F 89.4 °F 68.0 °F 55% 29.68 in 6.2 mi SSW 18.4 mph - N/A   Unknown
9:00 PM 84 °F - 71 °F 56% 29.70 in - SSW 20.7 mph - -  
9:00 PM 84.2 °F 89.6 °F 71.6 °F 66% 29.68 in 6.2 mi SSW 20.7 mph - N/A   Unknown
9:30 PM 84.2 °F 89.6 °F 71.6 °F 66% 29.68 in 6.2 mi SSW 19.6 mph - N/A   Unknown
10:00 PM 82.4 °F 86.3 °F 69.8 °F 66% 29.71 in 6.2 mi SSW 17.3 mph - N/A   Unknown
10:30 PM 82.4 °F 86.3 °F 69.8 °F 66% 29.71 in 6.2 mi SSW 18.4 mph - N/A   Unknown
11:00 PM 82 °F - 70 °F 59% 29.72 in - SSW 19.6 mph - -  
11:00 PM 82.4 °F 86.3 °F 69.8 °F 66% 29.71 in 6.2 mi SSW 19.6 mph - N/A   Unknown
11:30 PM 80.6 °F 84.6 °F 71.6 °F 74% 29.71 in 6.2 mi SSW 18.4 mph - N/A   Unknown